| time (UTC) | temp F | wind direction | speed MPH | gust MPH | rain 1hr in | rain 24hr in | rain mn in | humidity % | barometer mb |
| 20260508034521 | 47 | 184 | 0.0 | 0.0 | 0.00 | 0.00 | 0.00 | 51 | 1008.6 |
| 20260508033022 | 48 | 184 | 0.0 | 0.0 | 0.00 | 0.00 | 0.00 | 51 | 1008.6 |
| 20260508031527 | 48 | 184 | 0.0 | 0.0 | 0.00 | 0.00 | 0.00 | 51 | 1008.6 |
| 20260508030042 | 48 | 184 | 0.0 | 1.0 | 0.00 | 0.00 | 0.00 | 52 | 1008.5 |
| 20260508024532 | 49 | 195 | 0.0 | 0.0 | 0.00 | 0.00 | 0.00 | 51 | 1008.5 |
| 20260508023022 | 49 | 198 | 0.0 | 1.0 | 0.00 | 0.00 | 0.00 | 52 | 1008.6 |
| 20260508021524 | 50 | 199 | 0.0 | 2.0 | 0.00 | 0.00 | 0.00 | 49 | 1008.5 |
| 20260508020027 | 50 | 188 | 0.0 | 1.0 | 0.00 | 0.00 | 0.00 | 50 | 1008.6 |
| 20260508014531 | 50 | 199 | 0.0 | 0.0 | 0.00 | 0.00 | 0.00 | 49 | 1008.5 |
| 20260508013029 | 51 | 199 | 0.0 | 0.0 | 0.00 | 0.00 | 0.00 | 47 | 1008.2 |
| 20260508011524 | 51 | 199 | 0.0 | 0.0 | 0.00 | 0.00 | 0.00 | 47 | 1008.0 |
| 20260508010028 | 51 | 200 | 0.0 | 0.0 | 0.00 | 0.00 | 0.00 | 45 | 1007.7 |
| 20260508004528 | 52 | 185 | 0.0 | 0.0 | 0.00 | 0.00 | 0.00 | 45 | 1007.3 |
| 20260508003026 | 53 | 185 | 0.0 | 1.0 | 0.00 | 0.00 | 0.00 | 44 | 1007.1 |
| 20260508001528 | 53 | 185 | 0.0 | 1.0 | 0.00 | 0.00 | 0.00 | 41 | 1006.9 |
| 20260508000025 | 54 | 203 | 0.0 | 1.0 | 0.00 | 0.00 | 0.00 | 40 | 1006.8 |
| 20260507234535 | 55 | 220 | 0.0 | 4.0 | 0.00 | 0.00 | 0.00 | 38 | 1006.7 |
| 20260507233008 | 56 | 193 | 0.0 | 3.0 | 0.00 | 0.00 | 0.00 | 38 | 1006.6 |
| 20260507231515 | 57 | 195 | 1.0 | 3.0 | 0.00 | 0.00 | 0.00 | 37 | 1006.5 |
| 20260507230008 | 57 | 154 | 1.0 | 5.0 | 0.00 | 0.00 | 0.00 | 35 | 1006.5 |
| 20260507224507 | 58 | 218 | 1.0 | 5.0 | 0.00 | 0.00 | 0.00 | 35 | 1006.3 |
| 20260507223008 | 59 | 231 | 1.0 | 4.0 | 0.00 | 0.00 | 0.00 | 33 | 1006.2 |
| 20260507221509 | 59 | 191 | 1.0 | 5.0 | 0.00 | 0.00 | 0.00 | 34 | 1006.0 |
| 20260507220008 | 59 | 229 | 1.0 | 5.0 | 0.00 | 0.00 | 0.00 | 35 | 1006.0 |
| 20260507214503 | 60 | 166 | 2.0 | 7.0 | 0.00 | 0.00 | 0.00 | 34 | 1005.9 |
| 20260507213011 | 60 | 242 | 2.0 | 6.0 | 0.00 | 0.00 | 0.00 | 35 | 1005.7 |
| 20260507211510 | 60 | 239 | 1.0 | 6.0 | 0.00 | 0.00 | 0.00 | 32 | 1005.7 |
| 20260507210011 | 61 | 235 | 2.0 | 5.0 | 0.00 | 0.00 | 0.00 | 32 | 1005.6 |
| 20260507204512 | 61 | 190 | 1.0 | 6.0 | 0.00 | 0.00 | 0.00 | 34 | 1005.6 |
| 20260507203007 | 62 | 229 | 2.0 | 8.0 | 0.00 | 0.00 | 0.00 | 33 | 1005.6 |
| 20260507201513 | 62 | 172 | 2.0 | 5.0 | 0.00 | 0.00 | 0.00 | 33 | 1005.6 |
| 20260507200009 | 63 | 185 | 2.0 | 8.0 | 0.00 | 0.00 | 0.00 | 33 | 1005.7 |
| 20260507194513 | 64 | 193 | 2.0 | 5.0 | 0.00 | 0.00 | 0.00 | 33 | 1005.8 |
| 20260507193019 | 64 | 160 | 2.0 | 5.0 | 0.00 | 0.00 | 0.00 | 32 | 1006.0 |
| 20260507191508 | 63 | 238 | 2.0 | 4.0 | 0.00 | 0.00 | 0.00 | 30 | 1006.1 |
| 20260507190014 | 63 | 189 | 1.0 | 8.0 | 0.00 | 0.00 | 0.00 | 32 | 1006.2 |
| 20260507184512 | 64 | 141 | 2.0 | 6.0 | 0.00 | 0.00 | 0.00 | 28 | 1006.4 |
| 20260507183020 | 64 | 222 | 2.0 | 7.0 | 0.00 | 0.00 | 0.00 | 32 | 1006.4 |
| 20260507181505 | 65 | 191 | 3.0 | 7.0 | 0.00 | 0.00 | 0.00 | 29 | 1006.6 |
| 20260507180015 | 65 | 238 | 1.0 | 8.0 | 0.00 | 0.00 | 0.00 | 36 | 1006.5 |
| 20260507174515 | 64 | 151 | 2.0 | 9.0 | 0.00 | 0.00 | 0.00 | 37 | 1006.6 |
| 20260507173018 | 64 | 230 | 1.0 | 9.0 | 0.00 | 0.00 | 0.00 | 37 | 1006.5 |
| 20260507171527 | 63 | 234 | 1.0 | 6.0 | 0.00 | 0.00 | 0.00 | 40 | 1006.6 |
| 20260507170010 | 63 | 121 | 2.0 | 6.0 | 0.00 | 0.00 | 0.00 | 44 | 1006.9 |
| 20260507164514 | 63 | 225 | 2.0 | 6.0 | 0.00 | 0.00 | 0.00 | 43 | 1006.9 |
| 20260507163015 | 62 | 214 | 2.0 | 5.0 | 0.00 | 0.00 | 0.00 | 48 | 1007.0 |
| 20260507161518 | 61 | 153 | 1.0 | 6.0 | 0.00 | 0.00 | 0.00 | 53 | 1007.2 |
| 20260507160028 | 59 | 181 | 1.0 | 4.0 | 0.00 | 0.00 | 0.00 | 54 | 1007.3 |
| 20260507154512 | 59 | 216 | 1.0 | 3.0 | 0.00 | 0.00 | 0.00 | 58 | 1007.3 |
| 20260507153017 | 59 | 255 | 3.0 | 5.0 | 0.00 | 0.00 | 0.00 | 55 | 1007.3 |
| 20260507151517 | 59 | 222 | 2.0 | 5.0 | 0.00 | 0.00 | 0.00 | 57 | 1007.5 |
| 20260507150018 | 58 | 227 | 1.0 | 2.0 | 0.00 | 0.00 | 0.00 | 61 | 1007.7 |
| 20260507144520 | 57 | 237 | 3.0 | 6.0 | 0.00 | 0.00 | 0.00 | 57 | 1007.9 |
| 20260507143032 | 57 | 172 | 1.0 | 4.0 | 0.00 | 0.00 | 0.00 | 60 | 1008.0 |
| 20260507141519 | 56 | 223 | 0.0 | 3.0 | 0.00 | 0.00 | 0.00 | 62 | 1008.1 |
| 20260507140025 | 56 | 237 | 1.0 | 4.0 | 0.00 | 0.00 | 0.00 | 61 | 1008.1 |
| 20260507134520 | 55 | 247 | 1.0 | 4.0 | 0.00 | 0.00 | 0.00 | 63 | 1008.0 |
| 20260507133020 | 54 | 220 | 2.0 | 5.0 | 0.00 | 0.00 | 0.00 | 66 | 1008.2 |
| 20260507131515 | 53 | 214 | 1.0 | 3.0 | 0.00 | 0.00 | 0.00 | 68 | 1008.4 |
| 20260507130037 | 52 | 230 | 1.0 | 2.0 | 0.00 | 0.00 | 0.00 | 75 | 1008.4 |
| 20260507124523 | 51 | 208 | 0.0 | 2.0 | 0.00 | 0.00 | 0.00 | 80 | 1008.7 |
| 20260507123022 | 50 | 233 | 1.0 | 2.0 | 0.00 | 0.00 | 0.00 | 83 | 1008.6 |
| 20260507121523 | 49 | 231 | 1.0 | 3.0 | 0.00 | 0.00 | 0.00 | 88 | 1008.6 |
| 20260507120018 | 48 | 226 | 0.0 | 2.0 | 0.00 | 0.00 | 0.00 | 89 | 1008.4 |
| 20260507114529 | 48 | 188 | 0.0 | 1.0 | 0.00 | 0.00 | 0.00 | 90 | 1008.6 |
| 20260507113023 | 47 | 193 | 0.0 | 1.0 | 0.00 | 0.00 | 0.00 | 91 | 1008.5 |
| 20260507111514 | 47 | 207 | 0.0 | 1.0 | 0.00 | 0.00 | 0.00 | 92 | 1008.5 |
| 20260507110021 | 47 | 207 | 0.0 | 0.0 | 0.00 | 0.00 | 0.00 | 93 | 1008.2 |
| 20260507104525 | 47 | 207 | 0.0 | 1.0 | 0.00 | 0.00 | 0.00 | 92 | 1008.5 |
| 20260507103027 | 47 | 227 | 0.0 | 1.0 | 0.00 | 0.00 | 0.00 | 92 | 1008.1 |
| 20260507101510 | 47 | 233 | 0.0 | 0.0 | 0.00 | 0.00 | 0.00 | 92 | 1007.7 |
| 20260507100016 | 47 | 233 | 0.0 | 1.0 | 0.00 | 0.00 | 0.00 | 91 | 1007.7 |
| 20260507094528 | 47 | 233 | 0.0 | 2.0 | 0.00 | 0.00 | 0.00 | 91 | 1007.5 |
| 20260507093023 | 48 | 227 | 0.0 | 1.0 | 0.00 | 0.00 | 0.00 | 91 | 1007.9 |
| 20260507091534 | 48 | 232 | 0.0 | 2.0 | 0.00 | 0.00 | 0.00 | 90 | 1007.7 |
| 20260507090014 | 49 | 181 | 0.0 | 1.0 | 0.00 | 0.00 | 0.00 | 91 | 1008.0 |
| 20260507084520 | 49 | 176 | 0.0 | 1.0 | 0.00 | 0.00 | 0.00 | 92 | 1007.8 |
| 20260507083024 | 49 | 181 | 0.0 | 1.0 | 0.00 | 0.00 | 0.00 | 91 | 1007.7 |
| 20260507081525 | 50 | 227 | 0.0 | 0.0 | 0.00 | 0.00 | 0.00 | 91 | 1007.3 |
| 20260507080028 | 50 | 227 | 0.0 | 2.0 | 0.00 | 0.00 | 0.00 | 90 | 1007.5 |
| 20260507074516 | 51 | 239 | 1.0 | 3.0 | 0.00 | 0.00 | 0.00 | 89 | 1007.3 |
| 20260507073020 | 52 | 228 | 0.0 | 1.0 | 0.00 | 0.00 | 0.00 | 90 | 1007.5 |
| 20260507071528 | 52 | 227 | 0.0 | 1.0 | 0.00 | 0.00 | 0.00 | 89 | 1006.6 |
| 20260507070031 | 52 | 226 | 0.0 | 0.0 | 0.00 | 0.00 | 0.00 | 90 | 1006.7 |
| 20260507064539 | 52 | 226 | 0.0 | 2.0 | 0.00 | 0.00 | 0.00 | 90 | 1006.6 |
| 20260507063020 | 53 | 216 | 0.0 | 0.0 | 0.00 | 0.00 | 0.00 | 91 | 1006.7 |
| 20260507061524 | 53 | 227 | 0.0 | 2.0 | 0.00 | 0.00 | 0.00 | 91 | 1006.6 |
| 20260507060026 | 53 | 213 | 0.0 | 1.0 | 0.00 | 0.00 | 0.00 | 91 | 1006.7 |
| 20260507054527 | 54 | 215 | 0.0 | 2.0 | 0.00 | 0.00 | 0.00 | 90 | 1006.8 |
| 20260507053026 | 54 | 219 | 0.0 | 2.0 | 0.00 | 0.00 | 0.00 | 91 | 1007.0 |
| 20260507051524 | 55 | 234 | 1.0 | 4.0 | 0.00 | 0.00 | 0.00 | 91 | 1006.8 |
| 20260507050037 | 55 | 218 | 0.0 | 4.0 | 0.00 | 0.00 | 0.00 | 91 | 1006.9 |
| 20260507044529 | 56 | 217 | 0.0 | 2.0 | 0.00 | 0.00 | 0.00 | 93 | 1007.0 |
| 20260507043026 | 57 | 278 | 0.0 | 1.0 | 0.00 | 0.00 | 0.00 | 93 | 1006.9 |
| 20260507041529 | 57 | 180 | 0.0 | 2.0 | 0.00 | 0.00 | 0.00 | 93 | 1006.9 |
| 20260507040026 | 57 | 186 | 0.0 | 2.0 | 0.00 | 0.00 | 0.00 | 94 | 1007.0 |